KC3JUG-13 Weather Reports


Display with metric or nautical units.
time (UTC)temp
F
wind
direction
speed
MPH
gust
MPH
rain 1hr
in
rain 24hr
in
rain mn
in
humidity
%
barometer
mb
20260504231040 67 196 2.0 4.0 0.00 0.00 0.00 48 1011.4
20260504225740 68 244 2.0 3.0 0.00 0.00 0.00 47 1011.4
20260504224440 68 236 2.0 4.0 0.00 0.00 0.00 47 1011.3
20260504223140 69 200 2.0 4.0 0.00 0.00 0.00 45 1011.4
20260504221840 69 213 4.0 9.0 0.00 0.00 0.00 46 1011.4
20260504220540 69 163 3.0 7.0 0.00 0.00 0.00 45 1011.5
20260504215240 69 190 3.0 7.0 0.00 0.00 0.00 44 1011.5
20260504213940 69 180 3.0 6.0 0.00 0.00 0.00 45 1011.6
20260504212640 70 275 1.0 4.0 0.00 0.00 0.00 44 1011.5
20260504211340 70 197 1.0 7.0 0.00 0.00 0.00 44 1011.6
20260504210040 70 194 3.0 6.0 0.00 0.00 0.00 44 1011.4
20260504204740 70 268 3.0 7.0 0.00 0.00 0.00 45 1011.5
20260504203440 70 264 4.0 12.0 0.00 0.00 0.00 46 1011.5
20260504202140 71 197 4.0 8.0 0.00 0.00 0.00 43 1011.6
20260504200840 71 264 3.0 9.0 0.00 0.00 0.00 45 1011.9
20260504195540 70 267 5.0 12.0 0.00 0.00 0.00 43 1012.0
20260504194240 70 227 5.0 11.0 0.00 0.00 0.00 43 1012.0
20260504192940 70 254 3.0 5.0 0.00 0.00 0.00 45 1012.3
20260504191640 70 196 5.0 11.0 0.00 0.00 0.00 43 1012.5
20260504190340 69 242 5.0 11.0 0.00 0.00 0.00 44 1012.6
20260504185040 69 239 5.0 13.0 0.00 0.00 0.00 43 1012.7
20260504183740 69 208 3.0 7.0 0.00 0.00 0.00 47 1012.9
20260504182440 69 265 3.0 7.0 0.00 0.00 0.00 45 1013.0
20260504181140 68 250 3.0 7.0 0.00 0.00 0.00 45 1013.2
20260504175840 67 176 3.0 11.0 0.00 0.00 0.00 44 1013.4
20260504174540 67 206 4.0 7.0 0.00 0.00 0.00 45 1013.7
20260504173240 67 198 3.0 9.0 0.00 0.00 0.00 46 1014.0
20260504171940 66 281 4.0 8.0 0.00 0.00 0.00 47 1014.2
20260504170640 65 228 5.0 9.0 0.00 0.00 0.00 48 1014.2
20260504160140 63 245 2.0 8.0 0.00 0.00 0.00 49 1015.3
20260504150940 61 248 5.0 12.0 0.00 0.00 0.00 47 1015.9
20260504140440 58 186 3.0 4.0 0.00 0.00 0.00 56 1015.9
20260504110241 48 196 4.0 6.0 0.00 0.00 0.00 59 1016.5
20260504081341 51 232 2.0 3.0 0.00 0.00 0.00 48 1016.8
20260504045841 53 261 4.0 7.0 0.00 0.00 0.00 46 1017.0
20260504044541 53 236 4.0 8.0 0.00 0.00 0.00 46 1017.0
20260504043241 53 251 4.0 8.0 0.00 0.00 0.00 46 1016.8
20260504041941 53 246 4.0 7.0 0.00 0.00 0.00 46 1016.7
20260504040641 53 247 4.0 6.0 0.00 0.00 0.00 47 1016.5
20260504035341 53 258 3.0 6.0 0.00 0.00 0.00 47 1016.7
20260504034041 53 252 3.0 9.0 0.00 0.00 0.00 47 1016.6
20260504032741 53 254 2.0 4.0 0.00 0.00 0.00 47 1016.4
20260504031441 53 261 3.0 8.0 0.00 0.00 0.00 47 1016.4
20260504030141 53 248 2.0 5.0 0.00 0.00 0.00 47 1016.3
20260504024841 53 258 3.0 7.0 0.00 0.00 0.00 47 1016.4
20260504023541 53 251 2.0 4.0 0.00 0.00 0.00 47 1016.4
20260504022241 53 238 3.0 7.0 0.00 0.00 0.00 47 1016.5
20260504020941 53 265 3.0 7.0 0.00 0.00 0.00 48 1016.5
20260504015642 51 257 2.0 5.0 0.00 0.00 0.00 51 1016.6
20260504014341 50 270 1.0 3.0 0.00 0.00 0.00 56 1016.4
20260504013042 51 254 1.0 2.0 0.00 0.00 0.00 53 1016.2
20260504011742 50 246 1.0 4.0 0.00 0.00 0.00 53 1016.2
20260504010442 51 247 0.0 1.0 0.00 0.00 0.00 56 1016.1
20260504005142 51 247 1.0 4.0 0.00 0.00 0.00 54 1016.2
20260504003842 51 236 0.0 5.0 0.00 0.00 0.00 54 1016.1
20260504002542 53 246 1.0 3.0 0.00 0.00 0.00 53 1015.7
20260504001242 54 246 1.0 2.0 0.00 0.00 0.00 50 1015.6
20260503235942 54 234 2.0 4.0 0.00 0.00 0.00 47 1015.3
20260503234642 55 258 2.0 3.0 0.00 0.00 0.00 46 1015.3
20260503233342 56 250 3.0 5.0 0.00 0.00 0.00 45 1015.1
20260503232042 56 271 4.0 7.0 0.00 0.00 0.00 43 1015.1